Dalry, United Kingdom
Current Conditions -  °F | °C
As of 4:20 PM on Friday 24 Oct 2014 (Local Time) from EGPK Reporting Station
Scattered Clouds Scattered Clouds  
Wind Chill: 50°   Ceiling: Unl
Heat Index: 50°   Visibility: 6mi
Dew Point: 46°   Wind: 12mph
Humidity: 87%   Direction: 190°S
Pressure: 29.74"   Gusts: NA
Location:  55.68°N, 4.72°W
Report Text: EGPK 241520Z 19010KT 9999 FEW020 SCT035 10/08 Q1007
Loading
Personal Weather Stations






























Interactive Weather Map
Tropical Storm Tracking
New forecast layout! Learn more

10-Day Weather Forecast

Advertisements
Track Severe Weather on mobile